sat.trackr.live / text

‹ back to catalog

QIANFAN-37

NORAD 62238 · 2024-232B

PAYLOAD ACTIVE UNKNOWN

§ Identity

Operator
Country
PRC
Launch date
2024-12-05
Launch site
TAISC
Launch vehicle
Mass (kg)
RCS (m²)

External: N2YO · Heavens-Above · Gunter

§ Orbital elements

Epoch: 2026-05-25T03:41:55.636224Z

Period
106.59 min
Inclination
89.0094°
Eccentricity
0.0002088
Mean motion
13.51010235 rev/d
Perigee alt
1,067.0 km
Apogee alt
1,070.1 km
Semi-major
7,446.7 km
B*
1.2051e-4
RAAN
24.8954°
Arg perigee
60.5845°
Mean anomaly
299.5515°
Rev number
12,123

§ Raw data

QIANFAN-371 62238U 24232B   26145.15411616  .00000090  00000+0  12051-3 0  99972 62238  89.0094  24.8954 0002088  60.5845 299.5515 13.51010235121237

JSON: /api/v1/satellites/62238 · /tle

For live sub-satellite position, see the globe view (requires WebGL).

§ Visibility from observer

Set your observer location to see the next 7 days of passes ≥ 10°. The values pass through the URL so the page stays shareable.

No JS? Fill the form by hand. The geolocation button needs JavaScript.